Regional Weather Roundup
Issued by NWS

Home | Current Version | Previous Version | Graphics & Text | Print | Product List | Glossary On
Versions: 1 2 3 4 5 6 7 8 9 10 11 12 13 14 15 16 17 18 19 20 21 22 23 24 25 26 27 28 29 30 31 32 33 34 35 36 37 38 39 40 41 42 43 44 45 46 47 48 49 50
000
ASUS43 KMKX 260011
RWRWI

WISCONSIN REGIONAL WEATHER ROUNDUP
NATIONAL WEATHER SERVICE MILWAUKEE/SULLIVAN WI
700 PM CDT MON SEP 25 2017

NOTE: "FAIR" INDICATES FEW OR NO CLOUDS BELOW 12,000 FEET WITH NO
SIGNIFICANT WEATHER AND/OR OBSTRUCTIONS TO VISIBILITY.

WIZ001-002-006>008-014>016-023>028-260100-
NORTHWEST WISCONSIN

CITY           SKY/WX    TMP DP  RH WIND       PRES   REMARKS
SUPERIOR ARPT  CLOUDY    59  55  88 N3        30.01S
6HR MIN TEMP:  58; 6HR MAX TEMP:  60; 6HR PCP:  0.01;

ASHLAND        RAIN      57  56  96 NW3       30.02R FOG
6HR MIN TEMP:  57; 6HR MAX TEMP:  66; 6HR PCP:  0.97;

HAYWARD        LGT RAIN  57  55  93 N6        30.00S
6HR MIN TEMP:  57; 6HR MAX TEMP:  65; 6HR PCP:  0.44;

SIREN          CLOUDY    58  55  90 N7        30.00S
6HR MIN TEMP:  58; 6HR MAX TEMP:  59;

CUMBERLAND     CLOUDY    55  55 100 N10       29.98S
RICE LAKE      CLOUDY    60  58  94 CALM      29.99R
6HR MIN TEMP:  60; 6HR MAX TEMP:  70; 6HR PCP:  0.03;

CHETEK         CLOUDY    61  60  97 N6G16     29.97R
6HR MIN TEMP:  61; 6HR MAX TEMP:  75; 6HR PCP:  0.11;

LADYSMITH      CLOUDY    64  62  93 NW10      29.97R
6HR MIN TEMP:  64; 6HR MAX TEMP:  81; 6HR PCP:  0.84;

EAU CLAIRE     CLOUDY    65  62  90 NW9       29.94R
6HR MIN TEMP:  66; 6HR MAX TEMP:  85; 6HR PCP:  1.13;

MENOMONIE      CLOUDY    65  61  86 N9        29.97R
6HR MIN TEMP:  65; 6HR MAX TEMP:  79;

NEW RICHMOND   CLOUDY    59  57  92 N6        29.99S
6HR MIN TEMP:  59; 6HR MAX TEMP:  64;

OSCEOLA        CLOUDY    59  59 100 N5        30.02R
6HR MIN TEMP:  59; 6HR MAX TEMP:  62;

$$

WIZ003>005-009-010-017-018-260100-
NORTH CENTRAL WISCONSIN

CITY           SKY/WX    TMP DP  RH WIND       PRES   REMARKS
MANITOWISH WTR NOT AVBL
ARBOR VITAE    CLOUDY    65  64  94 NW12      29.96R
6HR MIN TEMP:  64; 6HR MAX TEMP:  81; 6HR PCP:  0.15;

WOODRUFF       CLOUDY    65  64  94 NW12      29.96R
6HR MIN TEMP:  64; 6HR MAX TEMP:  81; 6HR PCP:  0.15;

RHINELANDER    MOCLDY    72  65  78 N3        29.94R
6HR MIN TEMP:  72; 6HR MAX TEMP:  84;

EAGLE RIVER    CLOUDY    70  62  76 CALM      29.94R
6HR MIN TEMP:  70; 6HR MAX TEMP:  83;

LAND O LAKES   CLOUDY    64  62  94 N9        29.97R
6HR MIN TEMP:  64; 6HR MAX TEMP:  82; 6HR PCP:  0.21;

PHILLIPS       CLOUDY    64  64 100 NW5       29.87F
6HR MIN TEMP:  64; 6HR MAX TEMP:  81; 6HR PCP:  0.70;

TOMAHAWK       HVY RAIN  69  63  81 W13G21    29.96R
6HR MIN TEMP:  69; 6HR MAX TEMP:  84;

MEDFORD        MOCLDY    69  65  86 W7        29.94R
6HR MIN TEMP:  66; 6HR MAX TEMP:  83; 6HR PCP:  0.37;

MERRILL        CLOUDY    76  65  68 W9        29.93R
6HR MIN TEMP:  76; 6HR MAX TEMP:  86;

$$

WIZ029-030-035-036-043>047-260100-
CENTRAL WISCONSIN

CITY           SKY/WX    TMP DP  RH WIND       PRES   REMARKS
WAUSAU         MOCLDY    76  64  66 W9        29.91R
6HR MIN TEMP:  76; 6HR MAX TEMP:  86;

MOSINEE        PTCLDY    73  64  73 SW8       29.94R
MARSHFIELD     CLOUDY    70  61  73 W6        29.93R
6HR MIN TEMP:  70; 6HR MAX TEMP:  86; 6HR PCP: TRACE;

STEVENS POINT  CLOUDY    74  60  62 SW5       29.93S
6HR MIN TEMP:  74; 6HR MAX TEMP:  86;

WAUPACA        MOCLDY    79  64  59 W7        29.91R HX  81
6HR MIN TEMP:  79; 6HR MAX TEMP:  91;

WAUTOMA        MOCLDY    75  64  68 W3        29.92R
6HR MIN TEMP:  75; 6HR MAX TEMP:  89;

WISC RAPIDS    MOCLDY    72  61  68 SW3       29.94R
6HR MIN TEMP:  72; 6HR MAX TEMP:  89;

CAMP DOUGLAS   MOCLDY    70  64  83 CALM      29.92R
                                      6HR PCP:  0.03;

$$

WIZ011>013-019>022-031-037>040-048>050-260100-
NORTHEAST WISCONSIN

CITY           SKY/WX    TMP DP  RH WIND       PRES   REMARKS
ANTIGO         MOCLDY    71  65  82 SE10      29.93F
6HR MIN TEMP:  69; 6HR MAX TEMP:  85; 6HR PCP:  0.09;

SHAWANO        PTCLDY    76  64  68 SE7       29.90S
6HR MIN TEMP:  76; 6HR MAX TEMP:  90;

OCONTO         CLEAR     76  62  62 S7        29.91S
6HR MIN TEMP:  76; 6HR MAX TEMP:  87;

STURGEON BAY   CLEAR     73  62  68 S12       29.93S
6HR MIN TEMP:  73; 6HR MAX TEMP:  84;

GREEN BAY      CLEAR     76  65  68 S6        29.91S
6HR MIN TEMP:  76; 6HR MAX TEMP:  90;

MANITOWOC      CLEAR     72  65  78 S6        29.93F
6HR MIN TEMP:  72; 6HR MAX TEMP:  80;

APPLETON       PTCLDY    79  61  53 SE10      29.91R HX  80
CLINTONVILLE   PTCLDY    77  63  61 CALM      29.90S
OSHKOSH        CLEAR     78  63  59 SE7       29.90S HX  80
6HR MIN TEMP:  78; 6HR MAX TEMP:  88;

$$

WIZ032>034-041-042-053>061-260100-
SOUTHWEST WISCONSIN

CITY           SKY/WX    TMP DP  RH WIND       PRES   REMARKS
LA CROSSE      CLOUDY    72  67  84 SW5       29.92R
6HR MIN TEMP:  68; 6HR MAX TEMP:  88; 6HR PCP:  0.50;

SPARTA         CLOUDY    65  65  97 CALM      29.93R
6HR MIN TEMP:  65; 6HR MAX TEMP:  88; 6HR PCP:  0.43;

VIROQUA        CLOUDY    66  65  94 S7        29.97R
6HR MIN TEMP:  66; 6HR MAX TEMP:  89; 6HR PCP:  1.13;

BOSCOBEL       CLOUDY    68  65  90 W12       29.94R
6HR MIN TEMP:  67; 6HR MAX TEMP:  93; 6HR PCP:  0.15;

PRAIRIE DU CHI CLOUDY    69  63  83 CALM      29.92F
6HR MIN TEMP:  68; 6HR MAX TEMP:  90; 6HR PCP:  0.30;

PLATTEVILLE    PTCLDY    73  65  77 NE8       29.94R
6HR MIN TEMP:  73; 6HR MAX TEMP:  91;

$$

WIZ056-057-062-063-064-067-068-260100-
SOUTH CENTRAL WISCONSIN

CITY           SKY/WX    TMP DP  RH WIND       PRES   REMARKS
REEDSBURG      CLOUDY    70  66  87 NW5       29.94R
6HR MIN TEMP:  69; 6HR MAX TEMP:  89; 6HR PCP:  0.03;

BARABOO/DELLS  MOCLDY    71  62  73 W7        29.94R
6HR MIN TEMP:  71; 6HR MAX TEMP:  89;

LONE ROCK      MOCLDY    73  66  78 W8        29.93S
6HR MIN TEMP:  72; 6HR MAX TEMP:  92; 6HR PCP: TRACE;

MINERAL POINT  PTCLDY    70  63  78 NW6       29.94R
MADISON        PTCLDY    78  62  57 S3        29.90S HX  80
6HR MIN TEMP:  78; 6HR MAX TEMP:  90;

MIDDLETON      PTCLDY    76  63  62 NW9       29.93R
6HR MIN TEMP:  76; 6HR MAX TEMP:  92;

WATERTOWN      CLEAR     80  60  51 SE7       29.91R HX  80
6HR MIN TEMP:  80; 6HR MAX TEMP:  90;

MONROE         CLEAR     81  55  41 S5        29.92R HX  80
JANESVILLE     PTCLDY    84  55  37 S8        29.90S HX  83
$$

WIZ051-052-058>065-066-070>072-260100-
SOUTHEAST WISCONSIN

CITY           SKY/WX    TMP DP  RH WIND       PRES   REMARKS
MILWAUKEE      PTCLDY    80  60  50 S7        29.93S HX  81
6HR MIN TEMP:  80; 6HR MAX TEMP:  87;

WAUKESHA       CLEAR     77  55  47 SE6       29.95S
MILWAUKEE/TIMM PTCLDY    81  50  34 S6        29.94S HX  80
RACINE         CLEAR     78  62  57 S9        29.95S HX  80
6HR MIN TEMP:  78; 6HR MAX TEMP:  86;

BURLINGTON     CLEAR     78  59  52 SE8       29.93S
6HR MIN TEMP:  78; 6HR MAX TEMP:  93;

KENOSHA        CLEAR     78  59  51 SE6       29.94S
6HR MIN TEMP:  78; 6HR MAX TEMP:  90;

FOND DU LAC    CLEAR     78  60  53 SE8       29.91S
6HR MIN TEMP:  78; 6HR MAX TEMP:  89;

SHEBOYGAN      CLEAR     73  66  78 S5        29.93F
6HR MIN TEMP:  73; 6HR MAX TEMP:  85;

WEST BEND        N/A     75  55  50 SE5       29.94R
JUNEAU         CLEAR     78  61  55 SE8       29.93R
6HR MIN TEMP:  78; 6HR MAX TEMP:  87;

$$

LSZ147-162-260100-
LAKE SUPERIOR

STATION/POSITION TIME  TEMP    WIND        PRES    WAVE
                       AIR SEA DIR/SP/G            HT/PER
                 (UTC) (F)     (DEG/KT/KT) (MB)    (FT/S)
W MID LAKE BUOY  2250   59 57   20/  4/  4 1014.9R   0
DEVILS ISLAND    0000   60     340/  5/  6 1016.0R
SAXON HARBOR     2340   60     360/  9/ 13 1014.9S
$$

LMZ867-665-643>646-260100-
LAKE MICHIGAN

STATION/POSITION TIME  TEMP    WIND        PRES    WAVE
                       AIR SEA DIR/SP/G            HT/PER
                 (UTC) (F



USA.gov is the U.S. government's official web portal to all federal, state and local government web resources and services.